Погода в Карловке

Россия / Саратовская область     51°48′03″N   49°30′49″E
темп.,
°C
ветер,
м/с
пор.,
м/с
влажн.,
%
обл.,
%
осадки,
мм/ч
давл.,
гПа
погр.,
м
22 января, сб
сб2201:00−9ююв51395100 0.0 1020355
04:00−7ююв71491100 0.0 1020429
07:00−7ююв81688100 0.0 1019429
10:00−7ююв81691100 0.0 1021456
13:00−5ююв71592100 0.1 1021450
16:00−5ююв71390100 0.5 1022507
19:00−6юв61391100 0.1 1023415
22:00−5ююв71491100 0.2 1024538
23 января, вс
вс2301:00−5ююв71493100 0.0 1024469
04:00−6юв51193100 0.1 1026346
07:00−7юв51092100 0.0 1026263
10:00−9вюв51190100 0.0 1028244
13:00−7вюв51186100 0.0 1029324
16:00−7вюв51186100 0.0 1030296
19:00−8вюв51186100 0.0 1031262
22:00−8вюв41085100 0.0 1032254
24 января, пн
пн2401:00−10в41088100 0.0 1033181
04:00−11в41090100 0.0 1034166
07:00−11в41090100 0.0 1034179
10:00−10в51189100 0.0 1035236
13:00−8в41089100 0.0 1035299
16:00−10всв3790100 0.0 1035167
19:00−12всв3890100 0.0 1035119
22:00−13всв3590100 0.0 103567
25 января, вт
вт2501:00−13в3590100 0.0 103575
04:00−14вюв3689100 0.0 103578
07:00−16вюв369193 0.0 103473
10:00−15вюв3793100 0.0 1034112
13:00−10юв389218 0.0 1033190
16:00−11вюв359314 0.0 103292
19:00−14юв359619 0.0 103261
22:00−15юв359734 0.0 103163
26 января, ср
ср2601:00−16юв359726 0.0 103162
04:00−16юв359854 0.0 103057
07:00−16юв369856 0.0 102968
10:00−15юв379788 0.0 1029120
13:00−11юв369446 0.0 1028180
16:00−10юв3695100 0.0 1028147
19:00−10юв4896100 0.0 1027181
22:00−9вюв3896100 0.1 1026161